EIN6PE EIDW-KLAX

Flight info

Callsign EIN6PE
Flight time N/A
Altitude 36000
Route SUROX8E SUROX DCT NIPIT DCT LUTOV DCT PIKIL/M081F370 NATA JANJO/N0463F380 DCT DENSO DCT AGLOL DCT MERNU DCT XEXUL/N0474F400 DCT BLUOX DCT RAP J158 DDY J107 NORRA J100 LAS Q70 HAILO DCT KOPLE BOGET2
Aircraft A332/H-SDE3GHIJ2J3J5M1RVWXY/LB2D1

Departure

Time 2026-05-04 11:10
Airport Dublin Airport (EIDW)

Arrival

Time N/A
Airport Los Angeles International Airport (KLAX)
Time Latitude Longitude Altitude Speed Heading
2026-05-04 10:54 53.42364 -6.24543 215 ft 0 kts 135°
2026-05-04 11:01 53.42434 -6.24596 217 ft 0 kts 246°
2026-05-04 11:05 53.42261 -6.26186 215 ft 29 kts 276°
2026-05-04 11:06 53.42280 -6.26536 222 ft 34 kts 275°
2026-05-04 11:06 53.42304 -6.26973 218 ft 38 kts 275°
2026-05-04 11:06 53.42327 -6.27396 216 ft 35 kts 275°
2026-05-04 11:06 53.42350 -6.27795 223 ft 33 kts 276°
2026-05-04 11:08 53.42230 -6.28766 217 ft 33 kts 96°
2026-05-04 11:10 53.41468 -6.14738 2037 ft 246 kts 93°
2026-05-04 11:12 53.44736 -5.96640 6245 ft 263 kts 16°
2026-05-04 11:12 53.46565 -5.96529 6809 ft 268 kts 345°
2026-05-04 11:12 53.48186 -5.98045 7430 ft 271 kts 317°
2026-05-04 11:12 53.49479 -6.00363 8120 ft 273 kts 312°
2026-05-04 11:13 53.50711 -6.02809 8758 ft 275 kts 311°
2026-05-04 11:13 53.51956 -6.05284 9394 ft 279 kts 311°
2026-05-04 11:13 53.53225 -6.07784 10005 ft 283 kts 311°
2026-05-04 11:13 53.54528 -6.10332 10436 ft 293 kts 312°
2026-05-04 11:14 53.55898 -6.12999 10695 ft 309 kts 311°
2026-05-04 11:14 53.57323 -6.15768 10894 ft 325 kts 311°
2026-05-04 11:14 53.58859 -6.18751 11154 ft 340 kts 311°
2026-05-04 11:16 53.69591 -6.41547 14726 ft 367 kts 308°
2026-05-04 11:16 53.71161 -6.44965 15173 ft 370 kts 309°
2026-05-04 11:16 53.72753 -6.48419 15641 ft 373 kts 309°
2026-05-04 11:17 53.74354 -6.51894 16089 ft 377 kts 309°
2026-05-04 11:17 53.75973 -6.55409 16543 ft 380 kts 309°
2026-05-04 11:19 53.87612 -6.80842 19522 ft 399 kts 309°
2026-05-04 11:19 53.89311 -6.84576 19914 ft 401 kts 309°
2026-05-04 11:19 53.91016 -6.88331 20299 ft 403 kts 309°
2026-05-04 11:19 53.92658 -6.92218 20666 ft 407 kts 303°
2026-05-04 11:20 53.94101 -6.96368 21029 ft 410 kts 302°
2026-05-04 11:20 53.95486 -7.00623 21385 ft 413 kts 300°
2026-05-04 11:20 53.96830 -7.04951 21742 ft 416 kts 300°
2026-05-04 11:20 53.98155 -7.09329 22083 ft 418 kts 299°
2026-05-04 11:22 54.07509 -7.40655 24376 ft 431 kts 300°
2026-05-04 11:22 54.08872 -7.45230 24645 ft 433 kts 300°
2026-05-04 11:23 54.10238 -7.49818 24944 ft 435 kts 300°
2026-05-04 11:23 54.11605 -7.54420 25224 ft 436 kts 300°
2026-05-04 11:24 54.19867 -7.82449 26839 ft 445 kts 300°
2026-05-04 11:25 54.21257 -7.87196 27075 ft 447 kts 300°
2026-05-04 11:25 54.22648 -7.91960 27334 ft 448 kts 300°
2026-05-04 11:25 54.24041 -7.96734 27591 ft 449 kts 299°
2026-05-04 11:26 54.26817 -8.06286 28228 ft 449 kts 299°
2026-05-04 11:27 54.36605 -8.40273 29865 ft 459 kts 298°
2026-05-04 11:28 54.37995 -8.45139 30127 ft 461 kts 298°
2026-05-04 11:28 54.39405 -8.50087 30332 ft 462 kts 298°
2026-05-04 11:28 54.40814 -8.55041 30507 ft 464 kts 298°
2026-05-04 11:28 54.42233 -8.60042 30708 ft 465 kts 298°
2026-05-04 11:29 54.43648 -8.65038 30891 ft 465 kts 298°
2026-05-04 11:29 54.45063 -8.70042 31161 ft 464 kts 297°
2026-05-04 11:29 54.46462 -8.75006 31535 ft 460 kts 297°
2026-05-04 11:29 54.47855 -8.79958 31797 ft 460 kts 297°
2026-05-04 11:31 54.57531 -9.14650 33384 ft 458 kts 297°
2026-05-04 11:33 54.67001 -9.49111 34922 ft 449 kts 296°
2026-05-04 11:33 54.68329 -9.53987 35056 ft 449 kts 296°
2026-05-04 11:33 54.69659 -9.58879 35158 ft 450 kts 296°
2026-05-04 11:34 54.70988 -9.63777 35288 ft 450 kts 296°
2026-05-04 11:34 54.72314 -9.68675 35426 ft 450 kts 296°
2026-05-04 11:34 54.73639 -9.73580 35562 ft 450 kts 296°
2026-05-04 11:34 54.74962 -9.78486 35687 ft 450 kts 296°
2026-05-04 11:35 54.76280 -9.83387 35822 ft 450 kts 296°
2026-05-04 11:35 54.77599 -9.88300 35934 ft 450 kts 296°
2026-05-04 11:35 54.78914 -9.93212 36079 ft 449 kts 296°
2026-05-04 11:35 54.80229 -9.98129 36126 ft 450 kts 296°
2026-05-04 11:36 54.82864 -10.08021 36134 ft 454 kts 296°
2026-05-04 11:36 54.85517 -10.18024 36133 ft 460 kts 295°
2026-05-04 11:37 54.88199 -10.28180 36131 ft 465 kts 295°
2026-05-04 11:37 54.90900 -10.38454 36130 ft 469 kts 295°
2026-05-04 11:38 54.93601 -10.48779 36127 ft 469 kts 295°
2026-05-04 11:38 54.96289 -10.59098 36128 ft 468 kts 295°
2026-05-04 11:39 54.98971 -10.69444 36131 ft 468 kts 295°
2026-05-04 11:41 55.08248 -11.05601 36123 ft 466 kts 294°
2026-05-04 11:41 55.10448 -11.14265 36127 ft 466 kts 294°
2026-05-04 11:42 55.13068 -11.24623 36126 ft 466 kts 294°
2026-05-04 11:42 55.15678 -11.34989 36124 ft 466 kts 294°
2026-05-04 11:43 55.18279 -11.45370 36124 ft 466 kts 294°
2026-05-04 11:43 55.20854 -11.55696 36124 ft 466 kts 293°
2026-05-04 11:44 55.23440 -11.66114 36131 ft 466 kts 293°
2026-05-04 11:44 55.26009 -11.76513 36127 ft 464 kts 293°
2026-05-04 11:45 55.28565 -11.86904 36124 ft 464 kts 293°
2026-05-04 11:45 55.31108 -11.97299 36121 ft 464 kts 293°
2026-05-04 11:46 55.33644 -12.07709 36126 ft 464 kts 292°
2026-05-04 11:46 55.36173 -12.18141 36125 ft 464 kts 292°
2026-05-04 11:47 55.38692 -12.28583 36126 ft 464 kts 292°
2026-05-04 11:47 55.41204 -12.39047 36130 ft 464 kts 292°
2026-05-04 11:48 55.43705 -12.49517 36129 ft 464 kts 292°
2026-05-04 11:48 55.46200 -12.60010 36127 ft 464 kts 292°
2026-05-04 11:49 55.48673 -12.70459 36123 ft 464 kts 292°
2026-05-04 11:49 55.51150 -12.80981 36128 ft 464 kts 292°
2026-05-04 11:50 55.53617 -12.91506 36122 ft 464 kts 291°
2026-05-04 11:50 55.56076 -13.02056 36131 ft 464 kts 291°
2026-05-04 11:51 55.58527 -13.12620 36130 ft 464 kts 291°
2026-05-04 11:51 55.60967 -13.23189 36131 ft 463 kts 291°
2026-05-04 11:52 55.63390 -13.33735 36129 ft 462 kts 291°
2026-05-04 11:52 55.65798 -13.44271 36129 ft 462 kts 291°
2026-05-04 11:53 55.68198 -13.54821 36129 ft 462 kts 291°
2026-05-04 11:53 55.70589 -13.65386 36130 ft 461 kts 291°
2026-05-04 11:55 55.80043 -14.07689 36132 ft 459 kts 290°
2026-05-04 11:56 55.82375 -14.18259 36133 ft 459 kts 290°
2026-05-04 11:56 55.84681 -14.28765 36129 ft 459 kts 290°
2026-05-04 11:57 55.87013 -14.39440 36131 ft 460 kts 290°
2026-05-04 11:57 55.89305 -14.49988 36132 ft 459 kts 290°
2026-05-04 11:58 55.91606 -14.60633 36132 ft 459 kts 290°
2026-05-04 11:58 55.93894 -14.71271 36138 ft 460 kts 289°
2026-05-04 11:59 55.96174 -14.81925 36137 ft 459 kts 289°
2026-05-04 11:59 55.98441 -14.92578 36143 ft 459 kts 289°
2026-05-04 12:00 56.00725 -15.03246 36141 ft 460 kts 290°
2026-05-04 12:00 56.03088 -15.13803 36140 ft 460 kts 290°
2026-05-04 12:01 56.05480 -15.24403 36140 ft 460 kts 290°
2026-05-04 12:02 56.13753 -15.61734 36143 ft 461 kts 290°
2026-05-04 12:03 56.16099 -15.72468 36144 ft 462 kts 290°
2026-05-04 12:03 56.18422 -15.83143 36144 ft 462 kts 290°
2026-05-04 12:04 56.20753 -15.93913 36149 ft 462 kts 290°
2026-05-04 12:04 56.23073 -16.04689 36147 ft 462 kts 290°
2026-05-04 12:05 56.25388 -16.15498 36146 ft 462 kts 290°
2026-05-04 12:05 56.27689 -16.26297 36145 ft 462 kts 290°
2026-05-04 12:06 56.29985 -16.37131 36161 ft 463 kts 290°
2026-05-04 12:06 56.32273 -16.47984 36156 ft 463 kts 290°
2026-05-04 12:07 56.34534 -16.58768 36149 ft 463 kts 290°
2026-05-04 12:07 56.36797 -16.69621 36158 ft 463 kts 290°
2026-05-04 12:08 56.39052 -16.80493 36164 ft 463 kts 290°
2026-05-04 12:08 56.41300 -16.91390 36158 ft 463 kts 289°
2026-05-04 12:09 56.43538 -17.02297 36159 ft 463 kts 289°
2026-05-04 12:09 56.45767 -17.13218 36163 ft 463 kts 289°
2026-05-04 12:10 56.47985 -17.24146 36164 ft 463 kts 289°
2026-05-04 12:10 56.50192 -17.35082 36166 ft 462 kts 289°
2026-05-04 12:11 56.52388 -17.46020 36160 ft 462 kts 289°
2026-05-04 12:11 56.54573 -17.56970 36166 ft 462 kts 289°
2026-05-04 12:12 56.56750 -17.67937 36164 ft 462 kts 289°
2026-05-04 12:12 56.58921 -17.78932 36171 ft 463 kts 289°
2026-05-04 12:14 56.67496 -18.22992 36168 ft 463 kts 288°
2026-05-04 12:15 56.69620 -18.34059 36171 ft 463 kts 288°
2026-05-04 12:15 56.71733 -18.45134 36170 ft 463 kts 288°
2026-05-04 12:16 56.73833 -18.56210 36174 ft 463 kts 288°
2026-05-04 12:16 56.75924 -18.67296 36177 ft 463 kts 288°
2026-05-04 12:17 56.78007 -18.78408 36187 ft 463 kts 288°
2026-05-04 12:17 56.80079 -18.89526 36175 ft 462 kts 288°
2026-05-04 12:18 56.82140 -19.00645 36186 ft 462 kts 288°
2026-05-04 12:18 56.84180 -19.11720 36192 ft 463 kts 288°
2026-05-04 12:19 56.86222 -19.22873 36178 ft 463 kts 288°
2026-05-04 12:19 56.88256 -19.34051 36190 ft 463 kts 288°
2026-05-04 12:20 56.90283 -19.45253 36191 ft 463 kts 288°
2026-05-04 12:20 56.92297 -19.56450 36184 ft 463 kts 288°
2026-05-04 12:21 56.94302 -19.67667 36196 ft 463 kts 288°
2026-05-04 12:21 56.96294 -19.78879 36194 ft 463 kts 288°
2026-05-04 12:22 56.98274 -19.90091 36195 ft 463 kts 287°
2026-05-04 12:22 56.99917 -20.01478 36194 ft 462 kts 277°
2026-05-04 12:23 57.00574 -20.13209 36184 ft 462 kts 275°
2026-05-04 12:23 57.01029 -20.24976 36189 ft 462 kts 274°
2026-05-04 12:24 57.01438 -20.36695 36191 ft 462 kts 274°
2026-05-04 12:24 57.01853 -20.48466 36202 ft 462 kts 274°
2026-05-04 12:25 57.02270 -20.60253 36191 ft 463 kts 274°
2026-05-04 12:25 57.02679 -20.72044 36205 ft 463 kts 274°
2026-05-04 12:26 57.03077 -20.83839 36202 ft 463 kts 274°
2026-05-04 12:26 57.03399 -20.93639 36202 ft 463 kts 274°
2026-05-04 12:27 57.03776 -21.05431 36202 ft 463 kts 274°
2026-05-04 12:27 57.04142 -21.17225 36197 ft 463 kts 274°
2026-05-04 12:28 57.04496 -21.29016 36201 ft 463 kts 274°
2026-05-04 12:28 57.04840 -21.40818 36213 ft 463 kts 273°
2026-05-04 12:29 57.05173 -21.52620 36212 ft 463 kts 273°
2026-05-04 12:29 57.05494 -21.64432 36216 ft 463 kts 273°
2026-05-04 12:30 57.05805 -21.76244 36202 ft 463 kts 273°
2026-05-04 12:30 57.06104 -21.88058 36224 ft 463 kts 273°
2026-05-04 12:31 57.06390 -21.99795 36216 ft 463 kts 273°
2026-05-04 12:31 57.06668 -22.11609 36228 ft 463 kts 273°
2026-05-04 12:32 57.07062 -22.29337 36223 ft 462 kts 272°
2026-05-04 12:33 57.07312 -22.41143 36207 ft 462 kts 272°
2026-05-04 12:33 57.07550 -22.52955 36221 ft 463 kts 272°
2026-05-04 12:34 57.07777 -22.64777 36229 ft 463 kts 272°
2026-05-04 12:34 57.07993 -22.76605 36219 ft 463 kts 272°
2026-05-04 12:35 57.08198 -22.88429 36225 ft 463 kts 272°
2026-05-04 12:35 57.08391 -23.00263 36222 ft 463 kts 272°
2026-05-04 12:36 57.08574 -23.12088 36238 ft 464 kts 272°
2026-05-04 12:36 57.08746 -23.23955 36233 ft 465 kts 271°
2026-05-04 12:37 57.08907 -23.35839 36234 ft 465 kts 271°
2026-05-04 12:37 57.09057 -23.47708 36239 ft 465 kts 271°
2026-05-04 12:38 57.09194 -23.59525 36237 ft 465 kts 271°
2026-05-04 12:38 57.09322 -23.71411 36225 ft 464 kts 271°
2026-05-04 12:39 57.09438 -23.83308 36238 ft 467 kts 271°
2026-05-04 12:39 57.09543 -23.95258 36238 ft 467 kts 271°
2026-05-04 12:40 57.09637 -24.07218 36238 ft 467 kts 271°
2026-05-04 12:40 57.09720 -24.19171 36243 ft 467 kts 271°
2026-05-04 12:41 57.09791 -24.31128 36241 ft 467 kts 270°
2026-05-04 12:41 57.09851 -24.43087 36245 ft 468 kts 270°
2026-05-04 12:42 57.09900 -24.55087 36242 ft 469 kts 270°
2026-05-04 12:42 57.09937 -24.67091 36241 ft 469 kts 270°
2026-05-04 12:43 57.09962 -24.79099 36245 ft 469 kts 270°
2026-05-04 12:43 57.09977 -24.91091 36252 ft 469 kts 270°
2026-05-04 12:44 57.09979 -25.03098 36251 ft 469 kts 270°
2026-05-04 12:44 57.09970 -25.15111 36248 ft 470 kts 270°
2026-05-04 12:45 57.09950 -25.27136 36254 ft 470 kts 270°
2026-05-04 12:45 57.09919 -25.39144 36259 ft 470 kts 270°
2026-05-04 12:46 57.09875 -25.51160 36256 ft 470 kts 269°
2026-05-04 12:46 57.09821 -25.63099 36245 ft 470 kts 269°
2026-05-04 12:47 57.09755 -25.75135 36249 ft 471 kts 269°
2026-05-04 12:47 57.09677 -25.87179 36248 ft 471 kts 269°
2026-05-04 12:48 57.09588 -25.99234 36265 ft 471 kts 269°
2026-05-04 12:48 57.09487 -26.11287 36263 ft 471 kts 269°
2026-05-04 12:49 57.09374 -26.23334 36263 ft 471 kts 269°
2026-05-04 12:49 57.09250 -26.35386 36264 ft 471 kts 269°
2026-05-04 12:50 57.09115 -26.47387 36264 ft 473 kts 269°
2026-05-04 12:50 57.08966 -26.59544 36260 ft 472 kts 268°
2026-05-04 12:51 57.08808 -26.71544 36266 ft 473 kts 268°
2026-05-04 12:51 57.08637 -26.83643 36265 ft 473 kts 268°
2026-05-04 12:52 57.08454 -26.95737 36259 ft 473 kts 268°
2026-05-04 12:52 57.08260 -27.07807 36274 ft 472 kts 268°
2026-05-04 12:53 57.08054 -27.19873 36271 ft 472 kts 268°
2026-05-04 12:53 57.07837 -27.31930 36271 ft 472 kts 268°
2026-05-04 12:54 57.07609 -27.43982 36274 ft 472 kts 268°
2026-05-04 12:54 57.07369 -27.56032 36278 ft 472 kts 268°
2026-05-04 12:55 57.07117 -27.68086 36278 ft 471 kts 268°
2026-05-04 12:55 57.06854 -27.80129 36286 ft 472 kts 268°
2026-05-04 12:56 57.06580 -27.92146 36271 ft 473 kts 268°
2026-05-04 12:56 57.06293 -28.04228 36275 ft 474 kts 267°
2026-05-04 12:57 57.05994 -28.16320 36275 ft 473 kts 267°
2026-05-04 12:57 57.05682 -28.28427 36279 ft 474 kts 267°
2026-05-04 12:58 57.05360 -28.40511 36275 ft 473 kts 267°
2026-05-04 12:58 57.05026 -28.52599 36289 ft 473 kts 267°
2026-05-04 12:59 57.04683 -28.64581 36282 ft 473 kts 267°
2026-05-04 12:59 57.04326 -28.76657 36296 ft 473 kts 267°
2026-05-04 13:00 57.03958 -28.88721 36293 ft 473 kts 266°
2026-05-04 13:00 57.03578 -29.00769 36296 ft 472 kts 266°
2026-05-04 13:01 57.03188 -29.12785 36294 ft 472 kts 266°
2026-05-04 13:01 57.02788 -29.24760 36296 ft 473 kts 266°
2026-05-04 13:02 57.02372 -29.36842 36298 ft 474 kts 266°
2026-05-04 13:02 57.01944 -29.48935 36300 ft 474 kts 266°
2026-05-04 13:03 57.01505 -29.61034 36293 ft 476 kts 266°
2026-05-04 13:03 57.01053 -29.73146 36301 ft 475 kts 266°
2026-05-04 13:04 57.00590 -29.85235 36311 ft 475 kts 266°
2026-05-04 13:04 57.00136 -29.97327 36299 ft 475 kts 269°
2026-05-04 13:05 57.00371 -30.09435 36308 ft 474 kts 273°
2026-05-04 13:05 57.00815 -30.21516 36305 ft 475 kts 274°
2026-05-04 13:06 57.01292 -30.33620 36310 ft 475 kts 274°
2026-05-04 13:06 57.01748 -30.45650 36319 ft 476 kts 274°
2026-05-04 13:07 57.02187 -30.57819 36311 ft 478 kts 274°
2026-05-04 13:07 57.02610 -30.69976 36316 ft 477 kts 274°
2026-05-04 13:08 57.03022 -30.82147 36318 ft 478 kts 274°
2026-05-04 13:08 57.03419 -30.94251 36316 ft 477 kts 274°
2026-05-04 13:09 57.03807 -31.06422 36316 ft 478 kts 274°
2026-05-04 13:09 57.04184 -31.18609 36318 ft 478 kts 274°
2026-05-04 13:10 57.04549 -31.30801 36320 ft 478 kts 273°
2026-05-04 13:10 57.04903 -31.43010 36320 ft 479 kts 274°
2026-05-04 13:11 57.05245 -31.55249 36329 ft 480 kts 273°
2026-05-04 13:11 57.05575 -31.67440 36311 ft 481 kts 274°